DW4691 Weather Reports


Display with metric or nautical units.
time (UTC)temp
F
wind
direction
speed
MPH
gust
MPH
rain 1hr
in
rain 24hr
in
rain mn
in
humidity
%
barometer
mb
20260504081556 59 0 0.0 0.0 0.00 0.00 0.00 85 1016.2
20260504044552 63 0 0.0 0.0 0.00 0.00 0.00 74 1018.2
20260504043053 64 0 0.0 0.0 0.00 0.00 0.00 72 1018.4
20260504041551 65 0 0.0 0.0 0.00 0.00 0.00 71 1018.3
20260504040053 65 0 0.0 0.0 0.00 0.00 0.00 68 1018.4
20260504034557 66 0 0.0 0.0 0.00 0.00 0.00 67 1018.2
20260504033048 67 0 0.0 0.0 0.00 0.00 0.00 64 1018.3
20260504031543 67 0 0.0 0.0 0.00 0.00 0.00 62 1018.2
20260504030051 67 0 0.0 0.0 0.00 0.00 0.00 62 1018.0
20260504024553 68 0 0.0 0.0 0.00 0.00 0.00 63 1018.0
20260504023046 68 0 0.0 1.0 0.00 0.00 0.00 62 1017.9
20260504021549 68 0 0.0 0.0 0.00 0.00 0.00 63 1017.8
20260504020044 69 0 0.0 0.0 0.00 0.00 0.00 62 1017.6
20260504014541 69 0 0.0 0.0 0.00 0.00 0.00 61 1017.4
20260504013107 70 0 0.0 0.0 0.00 0.00 0.00 57 1017.3
20260504011548 71 0 0.0 0.0 0.00 0.00 0.00 57 1017.2
20260504010044 71 0 0.0 0.0 0.00 0.00 0.00 55 1017.3
20260504004545 73 0 0.0 0.0 0.00 0.00 0.00 55 1017.3
20260504003047 74 0 0.0 0.0 0.00 0.00 0.00 53 1017.3
20260504001550 76 0 0.0 1.0 0.00 0.00 0.00 47 1017.3
20260504000053 77 0 0.0 3.0 0.00 0.00 0.00 47 1017.3
20260503234548 78 0 0.0 0.0 0.00 0.00 0.00 47 1017.5
20260503233053 78 0 0.0 0.0 0.00 0.00 0.00 42 1017.5
20260503231546 79 0 0.0 0.0 0.00 0.00 0.00 43 1017.5
20260503230045 79 0 0.0 1.0 0.00 0.00 0.00 44 1017.6
20260503224541 80 0 0.0 2.0 0.00 0.00 0.00 40 1017.8
20260503223042 80 0 0.0 2.0 0.00 0.00 0.00 43 1017.9
20260503221559 80 0 0.0 2.0 0.00 0.00 0.00 38 1018.1
20260503220048 80 0 0.0 3.0 0.00 0.00 0.00 43 1018.3
20260503214545 80 0 0.0 2.0 0.00 0.00 0.00 42 1018.2
20260503213048 81 0 0.0 0.0 0.00 0.00 0.00 37 1018.5
20260503211543 82 0 0.0 3.0 0.00 0.00 0.00 36 1018.9
20260503210050 82 236 0.0 3.0 0.00 0.00 0.00 34 1019.0
20260503204614 83 0 0.0 0.0 0.00 0.00 0.00 36 1019.3
20260503203052 83 0 0.0 5.0 0.00 0.00 0.00 35 1019.5
20260503201546 83 0 0.0 1.0 0.00 0.00 0.00 40 1019.8
20260503200044 83 0 0.0 1.0 0.00 0.00 0.00 38 1020.0
20260503194551 82 0 0.0 2.0 0.00 0.00 0.00 38 1020.2
20260503193049 82 0 0.0 1.0 0.00 0.00 0.00 39 1020.4
20260503191606 81 0 0.0 2.0 0.00 0.00 0.00 40 1020.7
20260503190048 81 0 0.0 4.0 0.00 0.00 0.00 39 1020.9
20260503184545 81 0 0.0 1.0 0.00 0.00 0.00 39 1021.0
20260503183045 79 0 0.0 4.0 0.00 0.00 0.00 44 1021.2
20260503181549 80 0 0.0 3.0 0.00 0.00 0.00 41 1021.6
20260503180054 80 0 0.0 1.0 0.00 0.00 0.00 39 1021.8
20260503174553 80 0 0.0 3.0 0.00 0.00 0.00 43 1022.2
20260503173048 79 0 0.0 2.0 0.00 0.00 0.00 41 1022.5
20260503171549 78 115 0.0 2.0 0.00 0.00 0.00 43 1022.7
20260503160105 76 0 0.0 2.0 0.00 0.00 0.00 51 1022.9